This demonstration page uses our WeatherBlox Daily Observations layout. Learn more.

38.88101, -77.10428

Hourly Observations for March 30, 2017

Temp ( °F °C ) Dew Point ( °F °C ) Humidity (%) Winds ( mph kmh ) Pressure ( in mb ) Visibility ( mi km ) Precip ( " mm )
12:52 am 00:52 Clear 52 11.1 34 1.1 50 50 ENE 6 9 30.18 1022 10 16.09344 0 0
1:52 am 01:52 Mostly Clear 51 10.6 32 0 48 48 NE 8 13 30.18 1022 10 16.09344 0 0
2:52 am 02:52 Mostly Clear 50 10 32 0 50 50 ENE 9 15 30.18 1022 10 16.09344 0 0
3:52 am 03:52 Mostly Cloudy 49 9.4 32 0 52 52 NE 10 17 30.21 1023 10 16.09344 0 0
4:52 am 04:52 Partly Cloudy 48 8.9 31 -0.6 52 52 ENE 7 11 30.21 1023 10 16.09344 0 0
5:52 am 05:52 Cloudy 48 8.9 31 -0.6 52 52 ENE 10 17 30.24 1024 10 16.09344 0 0
6:52 am 06:52 Cloudy 47 8.3 30 -1.1 52 52 NE 13 20 30.24 1024 10 16.09344 0 0
7:52 am 07:52 Cloudy 47 8.3 31 -0.6 54 54 NE 14 22 30.27 1025 10 16.09344 0 0
8:52 am 08:52 Cloudy 47 8.3 31 -0.6 54 54 ENE 7 11 30.27 1025 10 16.09344 0 0
9:52 am 09:52 Cloudy 48 8.9 31 -0.6 52 52 E 8 13 30.27 1025 10 16.09344 0 0
10:52 am 10:52 Cloudy 50 10 31 -0.6 48 48 E 5 7 30.24 1024 10 16.09344 0 0
11:52 am 11:52 Cloudy 50 10 32 0 50 50 Calm 30.24 1024 10 16.09344 0 0
12:52 pm 12:52 Cloudy 53 11.7 32 0 45 45 E 3 6 30.21 1023 10 16.09344 0 0
1:52 pm 13:52 Cloudy 54 12.2 33 0.6 45 45 S 9 15 30.18 1022 10 16.09344 0 0
2:52 pm 14:52 Cloudy 54 12.2 34 1.1 47 47 SSE 9 15 30.12 1020 10 16.09344 0 0
3:52 pm 15:52 Cloudy 54 12.2 35 1.7 49 49 SSE 9 15 30.12 1020 10 16.09344 0 0
4:52 pm 16:52 Cloudy 54 12.2 35 1.7 49 49 ESE 8 13 30.09 1019 10 16.09344 0 0
5:52 pm 17:52 Cloudy 54 12.2 39 3.9 57 57 SSE 12 19 30.06 1018 10 16.09344 0 0
6:52 pm 18:52 Cloudy 53 11.7 40 4.4 61 61 SE 9 15 30.06 1018 10 16.09344 0 0
7:52 pm 19:52 Cloudy 52 11.1 40 4.4 64 64 SE 12 19 30.06 1018 10 16.09344 0 0
8:52 pm 20:52 Cloudy 51 10.6 40 4.4 66 66 S 12 19 30.09 1019 10 16.09344 0 0
9:52 pm 21:52 Cloudy 50 10 40 4.4 68 68 SSE 13 20 30.06 1018 10 16.09344 0 0
10:52 pm 22:52 Cloudy 50 10 40 4.4 68 68 SSE 13 20 30.06 1018 10 16.09344 0 0
11:52 pm 23:52 Cloudy 49 9.4 40 4.4 71 71 SSE 13 20 30.03 1017 10 16.09344 0 0

Powered by AerisWeather